F5MAP-5 Weather Reports


time (UTC)temp
C
wind
direction
speed
KPH
gust
KPH
rain 1hr
cm
rain 24hr
cm
rain mn
cm
humidity
%
barometer
mb
20260507144215 16 67 4.8 14.5 0.00 0.46 0.15 69 1014.9
20260507143214 16 26 8.0 14.5 0.00 0.46 0.15 69 1015.0
20260507142214 16 77 4.8 11.3 0.00 0.46 0.15 72 1015.1
20260507141214 15 63 4.8 12.9 0.00 0.46 0.15 71 1015.1
20260507140214 15 17 4.8 11.3 0.00 0.46 0.15 72 1015.1
20260507135214 16 98 4.8 14.5 0.00 0.46 0.15 73 1015.2
20260507134214 15 32 4.8 14.5 0.00 0.46 0.15 73 1015.3
20260507133214 15 9 6.4 14.5 0.00 0.46 0.15 74 1015.4
20260507132213 15 21 1.6 11.3 0.00 0.46 0.15 74 1015.4
20260507131214 15 28 3.2 8.0 0.00 0.46 0.15 76 1015.3
20260507130214 15 19 6.4 12.9 0.00 0.46 0.15 77 1015.3
20260507125213 15 68 6.4 16.1 0.00 0.46 0.15 78 1015.4
20260507124213 15 51 6.4 16.1 0.00 0.46 0.15 79 1015.4
20260507123214 15 34 4.8 14.5 0.00 0.46 0.15 79 1015.4
20260507122213 14 22 6.4 17.7 0.00 0.46 0.15 81 1015.4
20260507121214 13 46 6.4 14.5 0.00 0.46 0.15 82 1015.3
20260507120215 13 350 8.0 14.5 0.00 0.46 0.15 84 1015.3
20260507115213 13 5 4.8 11.3 0.00 0.46 0.15 85 1015.3
20260507114213 13 14 6.4 16.1 0.00 0.46 0.15 85 1015.3
20260507113212 13 36 8.0 14.5 0.00 0.46 0.15 84 1015.3
20260507112212 13 13 8.0 16.1 0.00 0.46 0.15 85 1015.3
20260507111212 13 40 4.8 14.5 0.00 0.46 0.15 85 1015.3
20260507110212 13 51 4.8 9.7 0.00 0.46 0.15 86 1015.3
20260507105213 13 5 0.0 4.8 0.00 0.46 0.15 86 1015.2
20260507104212 13 294 1.6 3.2 0.00 0.46 0.15 88 1015.3
20260507103213 13 260 3.2 6.4 0.00 0.46 0.15 89 1015.2
20260507102212 13 268 1.6 8.0 0.00 0.46 0.15 91 1015.3
20260507101212 13 205 3.2 11.3 0.00 0.46 0.15 92 1015.3
20260507100212 13 217 6.4 12.9 0.00 0.46 0.15 92 1015.3
20260507095213 13 215 3.2 8.0 0.00 0.46 0.15 93 1015.3
20260507094213 13 266 3.2 11.3 0.00 0.46 0.15 93 1015.3
20260507093213 12 179 4.8 9.7 0.00 0.46 0.15 94 1015.2
20260507092213 12 198 3.2 9.7 0.00 0.46 0.15 94 1015.2
20260507091213 12 199 4.8 11.3 0.00 0.46 0.15 95 1015.2
20260507090213 12 181 6.4 11.3 0.00 0.46 0.15 95 1015.1
20260507085213 12 218 4.8 11.3 0.00 0.46 0.15 95 1015.1
20260507084213 11 173 4.8 9.7 0.00 0.46 0.15 95 1014.9
20260507083212 11 171 4.8 9.7 0.00 0.46 0.15 95 1015.0
20260507082213 11 205 3.2 8.0 0.00 0.46 0.15 95 1015.0
20260507081212 11 186 4.8 6.4 0.00 0.46 0.15 95 1014.9
20260507080212 11 184 4.8 6.4 0.00 0.46 0.15 96 1014.9
20260507075212 11 171 3.2 8.0 0.00 0.46 0.15 95 1014.9
20260507074212 11 189 3.2 9.7 0.00 0.46 0.15 96 1014.8
20260507073212 11 206 3.2 8.0 0.00 0.46 0.15 95 1014.7
20260507072212 11 211 4.8 8.0 0.00 0.46 0.15 95 1014.7
20260507071212 11 201 4.8 8.0 0.00 0.46 0.15 96 1014.6
20260507070212 10 207 3.2 8.0 0.00 0.46 0.15 95 1014.5
20260507065213 10 211 3.2 6.4 0.00 0.46 0.15 95 1014.4
20260507064213 10 205 4.8 9.7 0.00 0.46 0.15 95 1014.4
20260507063213 10 248 4.8 8.0 0.00 0.46 0.15 95 1014.4
20260507062213 10 239 3.2 8.0 0.00 0.46 0.15 95 1014.4
20260507061213 10 221 1.6 8.0 0.00 0.46 0.15 95 1014.3
20260507060213 10 202 3.2 8.0 0.00 0.46 0.15 95 1014.1
20260507055213 10 227 3.2 9.7 0.00 0.46 0.15 95 1014.1
20260507054212 10 231 3.2 8.0 0.00 0.46 0.15 95 1014.0
20260507053212 10 221 4.8 9.7 0.00 0.43 0.13 95 1014.0
20260507052213 10 230 3.2 9.7 0.00 0.43 0.13 95 1013.8
20260507051212 10 245 4.8 8.0 0.00 0.43 0.13 95 1013.7
20260507050212 10 229 3.2 8.0 0.00 0.43 0.13 95 1013.5
20260507045214 10 248 0.0 6.4 0.00 0.43 0.13 95 1013.4
20260507044213 10 229 3.2 8.0 0.00 0.43 0.13 95 1013.3
20260507043212 10 216 3.2 8.0 0.00 0.43 0.13 95 1013.2
20260507042212 10 237 3.2 9.7 0.03 0.43 0.13 95 1013.1
20260507041212 10 227 4.8 8.0 0.00 0.43 0.13 95 1013.1
20260507040214 10 263 4.8 9.7 0.00 0.43 0.13 95 1013.0
20260507035212 10 269 4.8 6.4 0.00 0.43 0.13 95 1012.9
20260507034212 10 244 3.2 11.3 0.00 0.43 0.13 95 1012.8
20260507033212 10 246 8.0 12.9 0.00 0.43 0.13 95 1012.7
20260507032212 10 219 4.8 11.3 0.00 0.43 0.10 95 1012.6
20260507031212 10 228 4.8 12.9 0.00 0.43 0.10 95 1012.6
20260507030212 10 226 8.0 14.5 0.00 0.43 0.10 95 1012.5
20260507025212 10 223 8.0 17.7 0.00 0.43 0.10 95 1012.5
20260507024212 10 171 6.4 16.1 0.03 0.43 0.10 95 1012.4
20260507023212 10 239 6.4 14.5 0.03 0.43 0.10 95 1012.4
20260507022212 10 210 6.4 14.5 0.03 0.43 0.10 95 1012.3
20260507021212 10 256 6.4 14.5 0.03 0.43 0.10 95 1012.2
20260507020212 10 221 8.0 17.7 0.03 0.41 0.10 95 1012.0
20260507015212 10 243 8.0 17.7 0.03 0.41 0.10 94 1012.0
20260507014212 10 225 9.7 24.1 0.03 0.41 0.10 94 1012.0
20260507013212 10 240 8.0 20.9 0.03 0.41 0.10 94 1012.0
20260507012212 10 211 11.3 22.5 0.03 0.38 0.08 94 1012.0
20260507011211 10 215 11.3 19.3 0.03 0.38 0.08 94 1011.9
20260507010212 10 242 8.0 20.9 0.03 0.38 0.08 94 1011.8
20260507005211 10 243 11.3 19.3 0.03 0.38 0.08 94 1011.8
20260507004212 10 221 11.3 22.5 0.03 0.38 0.08 94 1011.8
20260507003211 10 267 8.0 25.7 0.03 0.38 0.05 94 1011.7
20260507002212 10 227 9.7 17.7 0.03 0.38 0.05 94 1011.7
20260507001212 10 202 11.3 22.5 0.03 0.38 0.05 94 1011.7
20260507000212 10 215 9.7 16.1 0.03 0.36 0.05 94 1011.7
20260506235211 10 225 12.9 19.3 0.03 0.36 0.05 94 1011.7
20260506234211 10 189 9.7 19.3 0.00 0.36 0.05 94 1011.7
20260506233211 10 194 11.3 20.9 0.03 0.36 0.05 94 1011.8
20260506232211 10 219 14.5 20.9 0.03 0.36 0.05 94 1011.7
20260506231211 10 205 12.9 22.5 0.03 0.36 0.05 94 1011.7
20260506230211 10 194 11.3 24.1 0.03 0.33 0.03 94 1011.6
20260506225211 10 195 11.3 20.9 0.03 0.33 0.03 94 1011.6
20260506224212 10 202 9.7 20.9 0.05 0.33 0.03 94 1011.6
20260506223211 10 196 9.7 19.3 0.03 0.33 0.03 94 1011.7
20260506222210 10 178 12.9 22.5 0.03 0.33 0.00 94 1011.6
20260506221213 10 222 9.7 22.5 0.03 0.33 0.00 94 1011.5
20260506220212 10 218 11.3 24.1 0.03 0.30 0.00 94 1011.4
20260506215212 10 247 14.5 22.5 0.03 0.30 0.30 94 1011.3
20260506214211 10 221 11.3 24.1 0.00 0.30 0.30 94 1011.2
20260506213212 10 208 11.3 24.1 0.03 0.30 0.30 93 1011.2
20260506212211 10 248 12.9 27.4 0.00 0.28 0.28 93 1011.1
20260506211211 10 231 9.7 25.7 0.03 0.28 0.28 93 1011.0
20260506210211 10 203 9.7 19.3 0.03 0.28 0.28 93 1010.9
20260506205212 10 219 9.7 19.3 0.03 0.28 0.28 93 1011.0
20260506204213 10 245 12.9 20.9 0.05 0.28 0.28 93 1010.9
20260506203212 10 207 11.3 19.3 0.05 0.28 0.28 93 1010.8
20260506202212 10 190 9.7 20.9 0.05 0.28 0.28 93 1010.8
20260506201212 10 232 12.9 20.9 0.03 0.28 0.28 93 1010.8
20260506200212 10 225 12.9 20.9 0.03 0.25 0.25 93 1010.7
20260506195212 10 192 11.3 20.9 0.03 0.25 0.25 93 1010.7
20260506194211 10 210 9.7 17.7 0.03 0.25 0.25 93 1010.6
20260506193211 10 246 9.7 20.9 0.03 0.23 0.23 93 1010.5
20260506192213 11 220 6.4 17.7 0.05 0.23 0.23 93 1010.4
20260506191211 11 229 9.7 20.9 0.05 0.23 0.23 92 1010.2
20260506190211 11 192 8.0 17.7 0.05 0.23 0.23 92 1010.1
20260506185212 11 215 8.0 16.1 0.08 0.23 0.23 92 1010.1
20260506184211 11 227 9.7 19.3 0.08 0.23 0.23 92 1010.0
20260506183211 11 234 11.3 20.9 0.08 0.20 0.20 92 1009.9
20260506182211 11 233 11.3 27.4 0.08 0.20 0.20 92 1009.8
20260506181211 11 212 11.3 25.7 0.08 0.18 0.18 92 1009.7
20260506180211 11 222 11.3 22.5 0.08 0.18 0.18 92 1009.6
20260506175210 11 242 12.9 20.9 0.08 0.15 0.15 92 1009.5
20260506174210 11 269 12.9 24.1 0.08 0.15 0.15 91 1009.4
20260506173210 11 228 11.3 22.5 0.08 0.13 0.13 91 1009.3
20260506172210 11 211 9.7 20.9 0.08 0.13 0.13 91 1009.2
20260506171210 11 248 14.5 22.5 0.08 0.10 0.10 91 1009.2
20260506170210 11 237 9.7 19.3 0.08 0.10 0.10 91 1009.1
20260506165210 11 221 8.0 19.3 0.08 0.08 0.08 91 1009.0
20260506164210 11 236 11.3 20.9 0.08 0.08 0.08 90 1009.0
20260506163210 12 244 12.9 22.5 0.05 0.05 0.05 90 1008.9
20260506162210 12 178 12.9 20.9 0.05 0.05 0.05 90 1008.9
20260506161210 12 206 11.3 20.9 0.03 0.03 0.03 90 1008.9
20260506160210 12 243 14.5 25.7 0.03 0.03 0.03 89 1008.9
20260506155210 12 221 9.7 19.3 0.00 0.00 0.00 89 1008.9
20260506154210 12 213 9.7 20.9 0.00 0.00 0.00 89 1008.8
20260506153210 12 204 9.7 17.7 0.00 0.00 0.00 88 1008.7
20260506152210 12 234 11.3 19.3 0.00 0.00 0.00 88 1008.7
20260506151210 12 199 8.0 19.3 0.00 0.00 0.00 87 1008.6
20260506150209 12 227 9.7 25.7 0.00 0.00 0.00 87 1008.6
20260506145212 12 250 11.3 20.9 0.00 0.00 0.00 87 1008.5